Flag for U.S.A. Weather past 2 weeks in Boise, Idaho, U.S.A.

Now
70 °F

Sunny.


Feels Like: 76 °F
Forecast: 50 / 76 °F
Wind: 9 mph from Northwest

Location: Boise Air Terminal

Current Time: Sep 1, 2014 at 1:32:43 PM

Latest Report: Sep 1, 2014 at 12:53 PM


Visibility: 10 mi

Pressure: 30.04 "Hg

Humidity: 32%

Dew point: 39 °F

Location of BoiseLocation

Historic Weather in Boise — Graph

°F

Boise temperature yesterday

Maximum temperature yesterday: 73 °F (at 5:53 PM)
Minimum temperature yesterday: 50 °F (at 7:53 AM)
Average temperature yesterday: 62 °F

Past Weeks' High & Low Weather Summary

 TemperatureHumidityPressure
High94 °F (Aug 17, 5:53 PM)89% (Aug 31, 6:53 AM)30.08 "Hg (Aug 31, 6:53 AM)
Low49 °F (Sep 1, 6:53 AM)14% (Aug 17, 5:53 PM)29.56 "Hg (Aug 19, 5:53 PM)
Average72 °F40%29.87 "Hg
* Reported Aug 17 11:53 AM — Sep 1 11:53 AM, Boise, Weather by CustomWeather, © 2014

Note: Actual official high and low records may vary slightly from our data, if they occured in-between our weather recording intervals... More about our weather records

Advertising

Boise weather history for previous 24 hours

 ConditionsComfort  
Time TempWeatherWind HumidityBarometerVisibility
11:53 AM
Sep 1
66 °FSunny.8 mph42%30.06 "Hg10 mi
10:53 AM62 °FSunny.6 mph48%30.07 "Hg10 mi
9:53 AM59 °FSunny.7 mph56%30.06 "Hg10 mi
8:53 AM55 °FClear.3 mph62%30.05 "Hg10 mi
7:53 AM51 °FClear.No wind69%30.04 "Hg10 mi
6:53 AM49 °FClear.3 mph74%30.02 "Hg10 mi
5:53 AM50 °FClear.3 mph74%30.00 "Hg10 mi
4:53 AM53 °FClear.No wind69%29.99 "Hg10 mi
3:53 AM55 °FClear.3 mph62%29.97 "Hg10 mi
2:53 AM56 °FClear.5 mph51%29.95 "Hg10 mi
1:53 AM57 °FClear.5 mph51%29.94 "Hg10 mi
12:53 AM60 °FClear.No wind49%29.93 "Hg10 mi
11:53 PM
Aug 31
62 °FClear.No wind48%29.93 "Hg10 mi
10:53 PM60 °FClear.5 mph52%29.92 "Hg10 mi
9:53 PM64 °FSunny.3 mph40%29.91 "Hg10 mi
8:53 PM68 °FSunny.5 mph35%29.91 "Hg10 mi
7:53 PM71 °FSunny.9 mph31%29.91 "Hg10 mi
6:53 PM73 °FSunny.10 mph32%29.91 "Hg10 mi
5:53 PM73 °FSunny.12 mph32%29.92 "Hg10 mi
4:53 PM72 °FSunny.7 mph31%29.93 "Hg10 mi
3:53 PM72 °FSunny.12 mph31%29.95 "Hg10 mi
2:53 PM72 °FSunny.13 mph33%29.97 "Hg10 mi
1:53 PM70 °FPassing clouds.6 mph37%29.98 "Hg10 mi
Weather by CustomWeather, © 2014

See weather overviewHow to use our weather pages